| time (UTC) | temp F | wind direction | speed MPH | gust MPH | rain 1hr in | rain 24hr in | rain mn in | humidity % | barometer mb |
| 20260507111039 | 50 | 338 | 4.0 | 10.0 | 0.00 | 0.33 | 0.02 | 62 | 1011.2 |
| 20260507110541 | 50 | 319 | 3.0 | 10.0 | 0.00 | 0.33 | 0.02 | 64 | 1011.1 |
| 20260507110056 | 50 | 346 | 3.0 | 6.0 | 0.00 | 0.33 | 0.02 | 66 | 1011.1 |
| 20260507105541 | 49 | 331 | 2.0 | 5.0 | 0.00 | 0.33 | 0.02 | 69 | 1011.1 |
| 20260507105041 | 50 | 340 | 1.0 | 4.0 | 0.00 | 0.33 | 0.02 | 69 | 1011.1 |
| 20260507104555 | 50 | 329 | 1.0 | 3.0 | 0.00 | 0.33 | 0.02 | 69 | 1011.1 |
| 20260507104040 | 50 | 348 | 0.0 | 2.0 | 0.00 | 0.33 | 0.02 | 68 | 1011.2 |
| 20260507103542 | 49 | 348 | 0.0 | 3.0 | 0.00 | 0.33 | 0.02 | 67 | 1011.2 |
| 20260507103052 | 49 | 0 | 1.0 | 3.0 | 0.00 | 0.33 | 0.02 | 68 | 1011.1 |
| 20260507102541 | 50 | 13 | 0.0 | 4.0 | 0.00 | 0.33 | 0.02 | 68 | 1010.7 |
| 20260507102041 | 50 | 0 | 1.0 | 4.0 | 0.00 | 0.33 | 0.02 | 67 | 1010.6 |
| 20260507101602 | 50 | 355 | 1.0 | 4.0 | 0.00 | 0.33 | 0.02 | 68 | 1010.6 |
| 20260507101040 | 49 | 298 | 2.0 | 5.0 | 0.00 | 0.33 | 0.02 | 68 | 1010.4 |
| 20260507100541 | 49 | 0 | 1.0 | 5.0 | 0.00 | 0.33 | 0.02 | 70 | 1010.6 |
| 20260507100052 | 49 | 0 | 1.0 | 3.0 | 0.00 | 0.33 | 0.02 | 72 | 1010.4 |
| 20260507095542 | 49 | 0 | 0.0 | 3.0 | 0.00 | 0.33 | 0.02 | 72 | 1010.5 |
| 20260507095042 | 49 | 23 | 0.0 | 3.0 | 0.00 | 0.33 | 0.02 | 71 | 1010.4 |
| 20260507094552 | 50 | 0 | 1.0 | 3.0 | 0.00 | 0.33 | 0.02 | 71 | 1010.4 |
| 20260507094040 | 50 | 0 | 0.0 | 3.0 | 0.00 | 0.33 | 0.02 | 72 | 1010.6 |
| 20260507093540 | 50 | 0 | 0.0 | 3.0 | 0.00 | 0.33 | 0.02 | 73 | 1010.5 |
| 20260507093051 | 50 | 15 | 1.0 | 2.0 | 0.00 | 0.33 | 0.02 | 73 | 1010.6 |
| 20260507092540 | 50 | 0 | 0.0 | 2.0 | 0.00 | 0.33 | 0.02 | 74 | 1010.5 |
| 20260507092042 | 50 | 87 | 0.0 | 3.0 | 0.00 | 0.33 | 0.02 | 74 | 1010.4 |
| 20260507091552 | 50 | 0 | 0.0 | 3.0 | 0.00 | 0.33 | 0.02 | 74 | 1010.4 |
| 20260507091042 | 50 | 0 | 0.0 | 2.0 | 0.00 | 0.33 | 0.02 | 73 | 1010.4 |
| 20260507090541 | 50 | 27 | 0.0 | 3.0 | 0.00 | 0.33 | 0.02 | 73 | 1010.3 |
| 20260507090111 | 50 | 59 | 1.0 | 4.0 | 0.00 | 0.33 | 0.02 | 73 | 1010.3 |
| 20260507085545 | 50 | 0 | 1.0 | 5.0 | 0.00 | 0.33 | 0.02 | 73 | 1010.2 |
| 20260507085042 | 50 | 0 | 1.0 | 6.0 | 0.00 | 0.33 | 0.02 | 73 | 1010.2 |
| 20260507084555 | 50 | 89 | 2.0 | 8.0 | 0.00 | 0.33 | 0.02 | 73 | 1010.3 |
| 20260507084041 | 50 | 299 | 3.0 | 8.0 | 0.00 | 0.33 | 0.02 | 75 | 1010.3 |
| 20260507083541 | 50 | 338 | 3.0 | 11.0 | 0.00 | 0.33 | 0.02 | 76 | 1010.2 |
| 20260507083050 | 50 | 5 | 4.0 | 11.0 | 0.00 | 0.33 | 0.02 | 79 | 1010.1 |
| 20260507082540 | 50 | 9 | 4.0 | 11.0 | 0.00 | 0.33 | 0.02 | 82 | 1010.1 |
| 20260507082042 | 50 | 26 | 3.0 | 8.0 | 0.00 | 0.33 | 0.02 | 85 | 1010.1 |
| 20260507081549 | 50 | 44 | 2.0 | 5.0 | 0.00 | 0.33 | 0.02 | 87 | 1009.9 |
| 20260507081042 | 51 | 315 | 2.0 | 8.0 | 0.00 | 0.33 | 0.02 | 88 | 1009.8 |
| 20260507080541 | 51 | 298 | 2.0 | 9.0 | 0.00 | 0.33 | 0.02 | 89 | 1009.7 |
| 20260507080051 | 51 | 345 | 3.0 | 9.0 | 0.00 | 0.33 | 0.02 | 89 | 1009.8 |
| 20260507075538 | 51 | 19 | 3.0 | 9.0 | 0.00 | 0.33 | 0.02 | 89 | 1009.8 |
| 20260507075038 | 51 | 339 | 2.0 | 8.0 | 0.00 | 0.33 | 0.02 | 89 | 1009.9 |
| 20260507074555 | 51 | 330 | 2.0 | 8.0 | 0.00 | 0.33 | 0.02 | 89 | 1009.9 |
| 20260507074043 | 51 | 9 | 2.0 | 5.0 | 0.00 | 0.33 | 0.02 | 89 | 1009.8 |
| 20260507073543 | 51 | 355 | 1.0 | 5.0 | 0.00 | 0.33 | 0.02 | 89 | 1009.7 |
| 20260507073044 | 51 | 5 | 2.0 | 5.0 | 0.00 | 0.33 | 0.02 | 89 | 1009.8 |
| 20260507072543 | 51 | 334 | 0.0 | 3.0 | 0.00 | 0.33 | 0.02 | 89 | 1009.9 |
| 20260507072040 | 51 | 341 | 1.0 | 3.0 | 0.00 | 0.33 | 0.02 | 89 | 1010.0 |
| 20260507071548 | 51 | 317 | 1.0 | 3.0 | 0.00 | 0.33 | 0.02 | 89 | 1010.0 |
| 20260507071043 | 51 | 346 | 0.0 | 3.0 | 0.00 | 0.33 | 0.02 | 89 | 1010.1 |
| 20260507070541 | 51 | 0 | 1.0 | 2.0 | 0.00 | 0.33 | 0.02 | 89 | 1010.1 |
| 20260507070053 | 51 | 295 | 0.0 | 4.0 | 0.00 | 0.33 | 0.02 | 89 | 1010.2 |
| 20260507065541 | 51 | 0 | 1.0 | 4.0 | 0.00 | 0.33 | 0.02 | 89 | 1010.1 |
| 20260507065040 | 51 | 338 | 0.0 | 4.0 | 0.01 | 0.33 | 0.02 | 89 | 1010.1 |
| 20260507064607 | 51 | 0 | 1.0 | 4.0 | 0.01 | 0.33 | 0.02 | 89 | 1010.1 |
| 20260507064041 | 51 | 61 | 1.0 | 4.0 | 0.01 | 0.33 | 0.02 | 88 | 1010.0 |
| 20260507063540 | 51 | 346 | 0.0 | 4.0 | 0.01 | 0.33 | 0.02 | 88 | 1010.1 |
| 20260507063056 | 51 | 0 | 1.0 | 4.0 | 0.01 | 0.33 | 0.02 | 88 | 1010.1 |
| 20260507062540 | 51 | 0 | 1.0 | 5.0 | 0.01 | 0.33 | 0.02 | 87 | 1010.3 |
| 20260507062113 | 51 | 0 | 1.0 | 5.0 | 0.01 | 0.33 | 0.02 | 87 | 1010.2 |
| 20260507061550 | 52 | 0 | 0.0 | 4.0 | 0.01 | 0.33 | 0.02 | 87 | 1010.2 |
| 20260507061041 | 52 | 61 | 1.0 | 6.0 | 0.01 | 0.33 | 0.02 | 87 | 1010.3 |
| 20260507060540 | 52 | 0 | 1.0 | 6.0 | 0.01 | 0.33 | 0.02 | 87 | 1010.2 |
| 20260507060052 | 52 | 327 | 3.0 | 6.0 | 0.01 | 0.33 | 0.02 | 86 | 1010.2 |
| 20260507055542 | 52 | 15 | 2.0 | 4.0 | 0.01 | 0.33 | 0.02 | 86 | 1010.1 |
| 20260507055044 | 52 | 344 | 2.0 | 4.0 | 0.00 | 0.32 | 0.01 | 86 | 1010.1 |
| 20260507054606 | 52 | 0 | 0.0 | 4.0 | 0.00 | 0.32 | 0.01 | 85 | 1010.1 |
| 20260507054042 | 52 | 59 | 1.0 | 8.0 | 0.00 | 0.32 | 0.01 | 84 | 1010.1 |
| 20260507053541 | 52 | 61 | 2.0 | 12.0 | 0.00 | 0.32 | 0.01 | 84 | 1010.0 |
| 20260507053055 | 52 | 318 | 2.0 | 12.0 | 0.00 | 0.32 | 0.01 | 83 | 1010.1 |
| 20260507052545 | 53 | 265 | 5.0 | 12.0 | 0.00 | 0.32 | 0.01 | 83 | 1010.1 |
| 20260507052041 | 53 | 267 | 3.0 | 10.0 | 0.00 | 0.32 | 0.01 | 85 | 1010.1 |
| 20260507051550 | 53 | 68 | 2.0 | 5.0 | 0.00 | 0.32 | 0.01 | 87 | 1010.1 |
| 20260507051038 | 53 | 321 | 1.0 | 8.0 | 0.00 | 0.32 | 0.01 | 86 | 1010.0 |
| 20260507050542 | 53 | 337 | 2.0 | 8.0 | 0.00 | 0.32 | 0.01 | 86 | 1009.8 |
| 20260507050046 | 53 | 343 | 3.0 | 8.0 | 0.01 | 0.32 | 0.01 | 86 | 1009.9 |
| 20260507045542 | 53 | 337 | 2.0 | 8.0 | 0.01 | 0.32 | 0.01 | 86 | 1010.0 |
| 20260507045110 | 53 | 335 | 3.0 | 8.0 | 0.01 | 0.32 | 0.01 | 85 | 1010.1 |
| 20260507044550 | 53 | 304 | 4.0 | 7.0 | 0.01 | 0.32 | 0.01 | 85 | 1010.1 |
| 20260507044041 | 53 | 327 | 2.0 | 7.0 | 0.01 | 0.32 | 0.01 | 85 | 1010.1 |
| 20260507043538 | 53 | 307 | 4.0 | 9.0 | 0.01 | 0.32 | 0.01 | 85 | 1010.0 |
| 20260507043052 | 53 | 342 | 3.0 | 11.0 | 0.01 | 0.32 | 0.01 | 85 | 1009.9 |
| 20260507042540 | 53 | 306 | 6.0 | 11.0 | 0.01 | 0.32 | 0.01 | 85 | 1010.2 |
| 20260507042043 | 53 | 312 | 5.0 | 13.0 | 0.01 | 0.32 | 0.01 | 84 | 1009.9 |
| 20260507041603 | 54 | 306 | 5.0 | 13.0 | 0.01 | 0.32 | 0.01 | 84 | 1009.9 |
| 20260507041045 | 54 | 316 | 6.0 | 12.0 | 0.01 | 0.32 | 0.01 | 84 | 1009.8 |
| 20260507040544 | 54 | 317 | 6.0 | 12.0 | 0.01 | 0.32 | 0.01 | 84 | 1009.9 |
| 20260507040058 | 55 | 300 | 4.0 | 10.0 | 0.00 | 0.31 | 0.00 | 83 | 1009.7 |
| 20260507035541 | 55 | 340 | 2.0 | 6.0 | 0.00 | 0.31 | 0.31 | 84 | 1009.7 |
| 20260507035041 | 55 | 5 | 2.0 | 10.0 | 0.00 | 0.31 | 0.31 | 84 | 1009.5 |
| 20260507034556 | 55 | 265 | 3.0 | 10.0 | 0.00 | 0.31 | 0.31 | 83 | 1009.4 |
| 20260507034039 | 55 | 344 | 3.0 | 10.0 | 0.00 | 0.31 | 0.31 | 84 | 1009.6 |
| 20260507033542 | 55 | 323 | 3.0 | 14.0 | 0.00 | 0.31 | 0.31 | 84 | 1009.7 |
| 20260507033047 | 55 | 344 | 6.0 | 14.0 | 0.00 | 0.31 | 0.31 | 84 | 1009.7 |
| 20260507032543 | 56 | 328 | 8.0 | 14.0 | 0.00 | 0.31 | 0.31 | 83 | 1009.7 |
| 20260507032040 | 56 | 302 | 7.0 | 12.0 | 0.00 | 0.31 | 0.31 | 82 | 1009.6 |
| 20260507031547 | 56 | 339 | 8.0 | 12.0 | 0.00 | 0.31 | 0.31 | 81 | 1009.8 |
| 20260507031041 | 56 | 329 | 2.0 | 10.0 | 0.00 | 0.31 | 0.31 | 82 | 1009.9 |
| 20260507030543 | 56 | 355 | 3.0 | 11.0 | 0.00 | 0.31 | 0.31 | 81 | 1009.6 |
| 20260507030101 | 57 | 338 | 5.0 | 11.0 | 0.00 | 0.31 | 0.31 | 81 | 1009.3 |
| 20260507025540 | 57 | 332 | 6.0 | 16.0 | 0.00 | 0.31 | 0.31 | 81 | 1009.2 |
| 20260507025042 | 57 | 312 | 8.0 | 16.0 | 0.00 | 0.31 | 0.31 | 80 | 1009.0 |
| 20260507024557 | 57 | 299 | 7.0 | 12.0 | 0.00 | 0.31 | 0.31 | 80 | 1009.1 |
| 20260507024041 | 57 | 314 | 7.0 | 12.0 | 0.00 | 0.31 | 0.31 | 80 | 1009.4 |
| 20260507023543 | 58 | 303 | 5.0 | 12.0 | 0.00 | 0.31 | 0.31 | 80 | 1009.5 |
| 20260507023110 | 58 | 337 | 2.0 | 9.0 | 0.00 | 0.31 | 0.31 | 80 | 1009.4 |
| 20260507022543 | 58 | 319 | 3.0 | 11.0 | 0.00 | 0.31 | 0.31 | 79 | 1009.3 |
| 20260507022040 | 58 | 349 | 4.0 | 12.0 | 0.00 | 0.31 | 0.31 | 79 | 1009.4 |
| 20260507021552 | 58 | 316 | 5.0 | 12.0 | 0.00 | 0.31 | 0.31 | 79 | 1009.2 |
| 20260507021040 | 58 | 258 | 6.0 | 12.0 | 0.00 | 0.31 | 0.31 | 79 | 1009.2 |
| 20260507020543 | 58 | 355 | 6.0 | 15.0 | 0.00 | 0.31 | 0.31 | 80 | 1009.1 |
| 20260507020048 | 58 | 312 | 7.0 | 15.0 | 0.00 | 0.31 | 0.31 | 81 | 1009.2 |
| 20260507015541 | 58 | 339 | 6.0 | 11.0 | 0.01 | 0.31 | 0.31 | 81 | 1009.2 |
| 20260507015040 | 58 | 360 | 5.0 | 11.0 | 0.02 | 0.31 | 0.31 | 82 | 1009.2 |
| 20260507014601 | 58 | 313 | 5.0 | 11.0 | 0.02 | 0.31 | 0.31 | 83 | 1009.2 |
| 20260507014043 | 59 | 328 | 4.0 | 9.0 | 0.03 | 0.31 | 0.31 | 83 | 1009.2 |
| 20260507013539 | 59 | 341 | 4.0 | 8.0 | 0.03 | 0.31 | 0.31 | 84 | 1009.2 |
| 20260507013109 | 59 | 286 | 2.0 | 10.0 | 0.03 | 0.31 | 0.31 | 84 | 1009.2 |
| 20260507012541 | 59 | 15 | 3.0 | 10.0 | 0.03 | 0.31 | 0.31 | 84 | 1009.1 |
| 20260507012041 | 59 | 350 | 4.0 | 10.0 | 0.03 | 0.31 | 0.31 | 85 | 1009.4 |
| 20260507011558 | 59 | 319 | 4.0 | 10.0 | 0.04 | 0.31 | 0.31 | 86 | 1009.3 |
| 20260507011040 | 60 | 360 | 4.0 | 8.0 | 0.04 | 0.31 | 0.31 | 87 | 1009.3 |
| 20260507010540 | 60 | 338 | 2.0 | 7.0 | 0.04 | 0.31 | 0.31 | 88 | 1009.4 |
| 20260507010049 | 60 | 337 | 3.0 | 9.0 | 0.04 | 0.31 | 0.31 | 87 | 1009.2 |
| 20260507005540 | 60 | 306 | 4.0 | 10.0 | 0.03 | 0.30 | 0.30 | 87 | 1009.2 |
| 20260507005041 | 60 | 301 | 4.0 | 10.0 | 0.02 | 0.29 | 0.29 | 86 | 1009.2 |
| 20260507004550 | 61 | 281 | 5.0 | 10.0 | 0.02 | 0.29 | 0.29 | 86 | 1009.2 |
| 20260507004040 | 61 | 306 | 5.0 | 10.0 | 0.01 | 0.28 | 0.28 | 85 | 1009.2 |
| 20260507003541 | 61 | 304 | 5.0 | 11.0 | 0.01 | 0.28 | 0.28 | 86 | 1008.9 |
| 20260507003050 | 61 | 283 | 6.0 | 11.0 | 0.01 | 0.28 | 0.28 | 86 | 1008.8 |
| 20260507002542 | 62 | 302 | 5.0 | 11.0 | 0.01 | 0.28 | 0.28 | 86 | 1008.7 |
| 20260507002042 | 62 | 311 | 4.0 | 11.0 | 0.01 | 0.28 | 0.28 | 86 | 1008.8 |
| 20260507001607 | 62 | 290 | 3.0 | 8.0 | 0.00 | 0.27 | 0.27 | 87 | 1008.9 |
| 20260507001045 | 63 | 315 | 4.0 | 8.0 | 0.00 | 0.27 | 0.27 | 87 | 1008.7 |
| 20260507000541 | 62 | 301 | 2.0 | 9.0 | 0.00 | 0.27 | 0.27 | 88 | 1008.4 |
| 20260507000052 | 62 | 292 | 3.0 | 10.0 | 0.00 | 0.27 | 0.27 | 88 | 1008.2 |
| 20260506235544 | 63 | 327 | 5.0 | 10.0 | 0.00 | 0.27 | 0.27 | 89 | 1008.0 |
| 20260506235040 | 64 | 313 | 7.0 | 10.0 | 0.00 | 0.27 | 0.27 | 89 | 1007.8 |
| 20260506234552 | 64 | 290 | 3.0 | 6.0 | 0.00 | 0.27 | 0.27 | 88 | 1007.6 |
| 20260506234045 | 64 | 315 | 1.0 | 2.0 | 0.00 | 0.27 | 0.27 | 88 | 1007.8 |
| 20260506233542 | 64 | 0 | 0.0 | 2.0 | 0.00 | 0.27 | 0.27 | 87 | 1007.7 |
| 20260506233049 | 64 | 0 | 0.0 | 2.0 | 0.00 | 0.27 | 0.27 | 87 | 1007.7 |
| 20260506232543 | 64 | 0 | 0.0 | 2.0 | 0.00 | 0.27 | 0.27 | 87 | 1007.6 |
| 20260506232041 | 64 | 242 | 0.0 | 2.0 | 0.00 | 0.27 | 0.27 | 86 | 1007.4 |
| 20260506231551 | 64 | 0 | 0.0 | 2.0 | 0.00 | 0.27 | 0.27 | 86 | 1007.5 |
| 20260506231041 | 65 | 0 | 0.0 | 2.0 | 0.00 | 0.27 | 0.27 | 86 | 1007.4 |
| 20260506230540 | 65 | 250 | 0.0 | 2.0 | 0.00 | 0.27 | 0.27 | 86 | 1007.4 |
| 20260506230044 | 65 | 0 | 0.0 | 3.0 | 0.00 | 0.27 | 0.27 | 86 | 1007.4 |
| 20260506225541 | 65 | 257 | 0.0 | 3.0 | 0.00 | 0.27 | 0.27 | 86 | 1007.4 |
| 20260506225041 | 65 | 259 | 0.0 | 3.0 | 0.00 | 0.27 | 0.27 | 86 | 1007.4 |
| 20260506224549 | 65 | 0 | 0.0 | 3.0 | 0.00 | 0.27 | 0.27 | 86 | 1007.4 |
| 20260506224041 | 65 | 231 | 0.0 | 3.0 | 0.00 | 0.27 | 0.27 | 86 | 1007.5 |
| 20260506223542 | 65 | 0 | 0.0 | 3.0 | 0.00 | 0.27 | 0.27 | 86 | 1007.4 |
| 20260506223104 | 65 | 0 | 1.0 | 3.0 | 0.00 | 0.27 | 0.27 | 86 | 1007.3 |
| 20260506222541 | 65 | 227 | 0.0 | 3.0 | 0.00 | 0.27 | 0.27 | 86 | 1007.4 |
| 20260506222042 | 65 | 223 | 1.0 | 3.0 | 0.00 | 0.27 | 0.27 | 86 | 1007.5 |
| 20260506221555 | 65 | 229 | 1.0 | 3.0 | 0.00 | 0.27 | 0.27 | 86 | 1007.4 |
| 20260506221041 | 65 | 226 | 1.0 | 3.0 | 0.00 | 0.27 | 0.27 | 85 | 1007.3 |
| 20260506220541 | 65 | 227 | 1.0 | 8.0 | 0.00 | 0.27 | 0.27 | 85 | 1007.3 |
| 20260506220049 | 65 | 215 | 2.0 | 8.0 | 0.00 | 0.27 | 0.27 | 85 | 1007.1 |
| 20260506215540 | 65 | 210 | 2.0 | 5.0 | 0.00 | 0.27 | 0.27 | 84 | 1007.2 |
| 20260506215041 | 65 | 225 | 1.0 | 5.0 | 0.00 | 0.27 | 0.27 | 84 | 1007.2 |
| 20260506214547 | 65 | 158 | 1.0 | 8.0 | 0.00 | 0.27 | 0.27 | 84 | 1007.2 |
| 20260506214040 | 65 | 229 | 1.0 | 8.0 | 0.00 | 0.27 | 0.27 | 84 | 1007.1 |
| 20260506213545 | 65 | 225 | 1.0 | 5.0 | 0.00 | 0.27 | 0.27 | 84 | 1007.0 |
| 20260506213054 | 65 | 225 | 1.0 | 5.0 | 0.00 | 0.27 | 0.27 | 84 | 1006.9 |
| 20260506212541 | 65 | 0 | 1.0 | 5.0 | 0.00 | 0.27 | 0.27 | 83 | 1006.9 |
| 20260506212044 | 65 | 215 | 1.0 | 4.0 | 0.00 | 0.27 | 0.27 | 83 | 1006.8 |
| 20260506211552 | 65 | 219 | 1.0 | 4.0 | 0.00 | 0.27 | 0.27 | 84 | 1006.7 |
| 20260506211041 | 65 | 0 | 1.0 | 5.0 | 0.00 | 0.27 | 0.27 | 83 | 1006.7 |
| 20260506210541 | 65 | 203 | 2.0 | 5.0 | 0.00 | 0.27 | 0.27 | 83 | 1006.6 |
| 20260506210050 | 65 | 219 | 1.0 | 5.0 | 0.00 | 0.27 | 0.27 | 84 | 1006.5 |
| 20260506205541 | 65 | 228 | 1.0 | 6.0 | 0.00 | 0.27 | 0.27 | 83 | 1006.5 |
| 20260506205042 | 65 | 203 | 2.0 | 6.0 | 0.00 | 0.27 | 0.27 | 83 | 1006.5 |
| 20260506204555 | 65 | 234 | 1.0 | 6.0 | 0.00 | 0.27 | 0.27 | 83 | 1006.5 |
| 20260506204040 | 65 | 225 | 1.0 | 6.0 | 0.00 | 0.27 | 0.27 | 83 | 1006.6 |
| 20260506203541 | 66 | 229 | 2.0 | 6.0 | 0.00 | 0.27 | 0.27 | 82 | 1006.5 |
| 20260506203055 | 66 | 277 | 2.0 | 5.0 | 0.00 | 0.27 | 0.27 | 82 | 1006.6 |
| 20260506202544 | 66 | 231 | 1.0 | 5.0 | 0.00 | 0.27 | 0.27 | 82 | 1006.6 |
| 20260506202041 | 66 | 233 | 1.0 | 5.0 | 0.00 | 0.27 | 0.27 | 82 | 1006.4 |
| 20260506201553 | 66 | 202 | 1.0 | 5.0 | 0.00 | 0.27 | 0.27 | 82 | 1006.4 |
| 20260506201045 | 66 | 230 | 2.0 | 5.0 | 0.00 | 0.27 | 0.27 | 81 | 1006.5 |
| 20260506200540 | 66 | 237 | 2.0 | 6.0 | 0.00 | 0.27 | 0.27 | 81 | 1006.6 |
| 20260506200120 | 67 | 225 | 3.0 | 6.0 | 0.00 | 0.27 | 0.27 | 80 | 1006.6 |
| 20260506195541 | 67 | 231 | 2.0 | 6.0 | 0.00 | 0.27 | 0.27 | 80 | 1006.5 |
| 20260506195041 | 67 | 126 | 2.0 | 6.0 | 0.00 | 0.27 | 0.27 | 80 | 1006.5 |
| 20260506194544 | 67 | 271 | 2.0 | 7.0 | 0.00 | 0.27 | 0.27 | 81 | 1006.5 |
| 20260506194041 | 67 | 215 | 3.0 | 8.0 | 0.00 | 0.27 | 0.27 | 81 | 1006.4 |
| 20260506193545 | 67 | 234 | 3.0 | 8.0 | 0.00 | 0.27 | 0.27 | 81 | 1006.4 |
| 20260506193050 | 67 | 207 | 3.0 | 7.0 | 0.00 | 0.27 | 0.27 | 80 | 1006.4 |
| 20260506192540 | 66 | 254 | 3.0 | 8.0 | 0.00 | 0.27 | 0.27 | 82 | 1006.5 |
| 20260506192042 | 66 | 240 | 2.0 | 8.0 | 0.00 | 0.27 | 0.27 | 83 | 1006.6 |
| 20260506191548 | 65 | 211 | 3.0 | 11.0 | 0.00 | 0.27 | 0.27 | 83 | 1006.7 |
| 20260506191041 | 65 | 239 | 3.0 | 11.0 | 0.00 | 0.27 | 0.27 | 84 | 1006.7 |
| 20260506190542 | 65 | 221 | 2.0 | 7.0 | 0.00 | 0.27 | 0.27 | 84 | 1006.7 |
| 20260506190050 | 65 | 213 | 2.0 | 8.0 | 0.00 | 0.27 | 0.27 | 84 | 1006.7 |
| 20260506185546 | 64 | 230 | 3.0 | 9.0 | 0.00 | 0.27 | 0.27 | 84 | 1006.7 |
| 20260506185044 | 65 | 242 | 2.0 | 9.0 | 0.00 | 0.27 | 0.27 | 84 | 1006.8 |
| 20260506184553 | 65 | 246 | 2.0 | 11.0 | 0.00 | 0.27 | 0.27 | 84 | 1006.8 |
| 20260506184041 | 64 | 221 | 3.0 | 13.0 | 0.00 | 0.27 | 0.27 | 85 | 1007.0 |
| 20260506183541 | 64 | 219 | 3.0 | 13.0 | 0.00 | 0.27 | 0.27 | 84 | 1006.8 |
| 20260506183048 | 64 | 178 | 3.0 | 8.0 | 0.00 | 0.27 | 0.27 | 84 | 1007.0 |
| 20260506182540 | 64 | 164 | 3.0 | 12.0 | 0.00 | 0.27 | 0.27 | 84 | 1006.9 |
| 20260506182041 | 64 | 227 | 4.0 | 12.0 | 0.00 | 0.27 | 0.27 | 85 | 1006.9 |
| 20260506181544 | 64 | 248 | 2.0 | 12.0 | 0.00 | 0.27 | 0.27 | 85 | 1006.9 |
| 20260506181041 | 64 | 238 | 4.0 | 12.0 | 0.00 | 0.27 | 0.27 | 86 | 1006.9 |
| 20260506180543 | 64 | 248 | 4.0 | 13.0 | 0.00 | 0.27 | 0.27 | 86 | 1006.9 |
| 20260506180104 | 63 | 251 | 5.0 | 15.0 | 0.00 | 0.27 | 0.27 | 87 | 1007.0 |
| 20260506175540 | 63 | 232 | 4.0 | 15.0 | 0.00 | 0.27 | 0.27 | 87 | 1007.1 |
| 20260506175041 | 63 | 209 | 3.0 | 15.0 | 0.00 | 0.27 | 0.27 | 88 | 1007.2 |
| 20260506174552 | 62 | 242 | 5.0 | 15.0 | 0.00 | 0.27 | 0.27 | 89 | 1007.1 |
| 20260506174044 | 62 | 218 | 3.0 | 13.0 | 0.00 | 0.27 | 0.27 | 90 | 1007.2 |
| 20260506173541 | 61 | 216 | 4.0 | 13.0 | 0.00 | 0.27 | 0.27 | 90 | 1007.1 |
| 20260506173101 | 61 | 194 | 1.0 | 14.0 | 0.00 | 0.27 | 0.27 | 90 | 1007.2 |
| 20260506172541 | 61 | 216 | 3.0 | 14.0 | 0.00 | 0.27 | 0.27 | 90 | 1007.2 |
| 20260506172041 | 61 | 236 | 3.0 | 13.0 | 0.00 | 0.27 | 0.27 | 91 | 1007.2 |
| 20260506171557 | 60 | 227 | 4.0 | 11.0 | 0.00 | 0.27 | 0.27 | 91 | 1007.2 |
| 20260506171041 | 60 | 171 | 3.0 | 9.0 | 0.00 | 0.27 | 0.27 | 91 | 1007.2 |
| 20260506170541 | 60 | 217 | 3.0 | 10.0 | 0.00 | 0.27 | 0.27 | 91 | 1007.1 |
| 20260506170047 | 60 | 224 | 3.0 | 10.0 | 0.00 | 0.27 | 0.27 | 91 | 1007.2 |
| 20260506165541 | 60 | 228 | 2.0 | 14.0 | 0.00 | 0.27 | 0.27 | 91 | 1007.2 |
| 20260506165041 | 60 | 219 | 4.0 | 15.0 | 0.00 | 0.27 | 0.27 | 91 | 1007.2 |
| 20260506164546 | 60 | 234 | 5.0 | 16.0 | 0.00 | 0.27 | 0.27 | 92 | 1007.3 |
| 20260506164041 | 60 | 214 | 5.0 | 16.0 | 0.00 | 0.27 | 0.27 | 92 | 1007.2 |
| 20260506163541 | 60 | 216 | 4.0 | 19.0 | 0.00 | 0.27 | 0.27 | 92 | 1007.3 |
| 20260506163053 | 60 | 227 | 3.0 | 19.0 | 0.00 | 0.27 | 0.27 | 92 | 1007.2 |
| 20260506162544 | 60 | 257 | 4.0 | 19.0 | 0.00 | 0.27 | 0.27 | 93 | 1007.0 |
| 20260506162043 | 60 | 202 | 4.0 | 16.0 | 0.00 | 0.27 | 0.27 | 93 | 1007.0 |
| 20260506161555 | 60 | 214 | 5.0 | 16.0 | 0.00 | 0.27 | 0.27 | 93 | 1007.2 |
| 20260506161041 | 59 | 212 | 4.0 | 17.0 | 0.01 | 0.27 | 0.27 | 93 | 1007.3 |
| 20260506160544 | 59 | 198 | 4.0 | 19.0 | 0.01 | 0.27 | 0.27 | 93 | 1007.4 |
| 20260506160106 | 59 | 186 | 7.0 | 19.0 | 0.01 | 0.27 | 0.27 | 93 | 1007.4 |
| 20260506155541 | 59 | 209 | 5.0 | 18.0 | 0.01 | 0.27 | 0.27 | 94 | 1007.4 |
| 20260506155041 | 59 | 246 | 6.0 | 18.0 | 0.02 | 0.27 | 0.27 | 94 | 1007.3 |
| 20260506154553 | 59 | 188 | 5.0 | 16.0 | 0.02 | 0.27 | 0.27 | 94 | 1007.2 |
| 20260506154042 | 59 | 207 | 5.0 | 16.0 | 0.05 | 0.27 | 0.27 | 94 | 1007.1 |
| 20260506153541 | 60 | 215 | 5.0 | 15.0 | 0.06 | 0.27 | 0.27 | 94 | 1007.0 |
| 20260506153055 | 59 | 223 | 5.0 | 15.0 | 0.07 | 0.27 | 0.27 | 94 | 1007.0 |
| 20260506152540 | 59 | 209 | 7.0 | 16.0 | 0.07 | 0.27 | 0.27 | 94 | 1007.2 |
| 20260506152041 | 59 | 251 | 5.0 | 16.0 | 0.07 | 0.27 | 0.27 | 94 | 1007.3 |
| 20260506151550 | 59 | 187 | 5.0 | 13.0 | 0.08 | 0.26 | 0.26 | 94 | 1007.1 |
| 20260506151041 | 59 | 180 | 5.0 | 16.0 | 0.09 | 0.26 | 0.26 | 94 | 1007.0 |
| 20260506150541 | 59 | 231 | 6.0 | 16.0 | 0.10 | 0.26 | 0.26 | 94 | 1007.1 |
| 20260506150051 | 59 | 212 | 6.0 | 17.0 | 0.10 | 0.26 | 0.26 | 94 | 1007.4 |
| 20260506145541 | 59 | 180 | 3.0 | 17.0 | 0.11 | 0.26 | 0.26 | 94 | 1007.8 |
| 20260506145041 | 59 | 200 | 2.0 | 10.0 | 0.11 | 0.25 | 0.25 | 94 | 1008.0 |
| 20260506144553 | 59 | 196 | 2.0 | 7.0 | 0.11 | 0.25 | 0.25 | 94 | 1008.1 |
| 20260506144041 | 59 | 250 | 2.0 | 11.0 | 0.08 | 0.22 | 0.22 | 93 | 1008.1 |
| 20260506143541 | 59 | 240 | 3.0 | 11.0 | 0.08 | 0.21 | 0.21 | 93 | 1008.1 |
| 20260506143044 | 59 | 217 | 3.0 | 13.0 | 0.07 | 0.20 | 0.20 | 94 | 1008.0 |
| 20260506142540 | 59 | 221 | 5.0 | 17.0 | 0.09 | 0.20 | 0.20 | 93 | 1007.9 |
| 20260506142040 | 59 | 217 | 5.0 | 17.0 | 0.08 | 0.19 | 0.19 | 93 | 1007.7 |
| 20260506141551 | 59 | 209 | 6.0 | 16.0 | 0.08 | 0.18 | 0.18 | 93 | 1007.7 |
| 20260506141041 | 59 | 217 | 5.0 | 15.0 | 0.08 | 0.17 | 0.17 | 93 | 1007.8 |
| 20260506140541 | 59 | 223 | 4.0 | 13.0 | 0.08 | 0.16 | 0.16 | 93 | 1007.5 |
| 20260506140050 | 59 | 213 | 7.0 | 21.0 | 0.09 | 0.16 | 0.16 | 93 | 1007.4 |
| 20260506135541 | 59 | 221 | 6.0 | 21.0 | 0.09 | 0.15 | 0.15 | 93 | 1007.4 |
| 20260506135041 | 59 | 136 | 7.0 | 17.0 | 0.09 | 0.14 | 0.14 | 93 | 1007.4 |
| 20260506134614 | 59 | 221 | 5.0 | 16.0 | 0.09 | 0.14 | 0.14 | 93 | 1007.6 |
| 20260506134041 | 59 | 204 | 6.0 | 16.0 | 0.10 | 0.14 | 0.14 | 92 | 1007.6 |
| 20260506133541 | 59 | 192 | 6.0 | 16.0 | 0.09 | 0.13 | 0.13 | 92 | 1007.6 |
| 20260506133054 | 59 | 187 | 6.0 | 15.0 | 0.10 | 0.13 | 0.13 | 92 | 1007.6 |
| 20260506132541 | 59 | 205 | 6.0 | 15.0 | 0.09 | 0.11 | 0.11 | 91 | 1007.7 |
| 20260506132042 | 59 | 219 | 6.0 | 15.0 | 0.09 | 0.10 | 0.10 | 91 | 1007.7 |
| 20260506131607 | 59 | 217 | 5.0 | 14.0 | 0.09 | 0.10 | 0.10 | 91 | 1007.7 |
| 20260506131041 | 59 | 204 | 6.0 | 14.0 | 0.09 | 0.09 | 0.09 | 90 | 1007.9 |
| 20260506130541 | 59 | 169 | 5.0 | 15.0 | 0.08 | 0.08 | 0.08 | 90 | 1007.8 |
| 20260506130050 | 59 | 178 | 4.0 | 15.0 | 0.07 | 0.07 | 0.07 | 89 | 1007.8 |
| 20260506125541 | 59 | 219 | 4.0 | 13.0 | 0.06 | 0.06 | 0.06 | 89 | 1007.8 |
| 20260506125041 | 60 | 180 | 4.0 | 12.0 | 0.05 | 0.05 | 0.05 | 88 | 1007.9 |
| 20260506124551 | 60 | 222 | 3.0 | 15.0 | 0.05 | 0.05 | 0.05 | 88 | 1007.8 |
| 20260506124041 | 60 | 178 | 3.0 | 15.0 | 0.04 | 0.04 | 0.04 | 87 | 1007.8 |
| 20260506123541 | 60 | 153 | 4.0 | 12.0 | 0.04 | 0.04 | 0.04 | 86 | 1008.0 |
| 20260506123049 | 60 | 221 | 3.0 | 10.0 | 0.03 | 0.03 | 0.03 | 86 | 1008.0 |
| 20260506122541 | 60 | 211 | 2.0 | 10.0 | 0.02 | 0.02 | 0.02 | 85 | 1008.0 |
| 20260506122042 | 61 | 220 | 3.0 | 10.0 | 0.01 | 0.01 | 0.01 | 83 | 1007.9 |
| 20260506121549 | 61 | 205 | 4.0 | 14.0 | 0.01 | 0.01 | 0.01 | 82 | 1008.0 |
| 20260506121041 | 61 | 216 | 3.0 | 14.0 | 0.00 | 0.00 | 0.00 | 81 | 1008.2 |
| 20260506120541 | 62 | 235 | 5.0 | 14.0 | 0.00 | 0.00 | 0.00 | 81 | 1008.3 |
| 20260506120048 | 62 | 224 | 3.0 | 15.0 | 0.00 | 0.00 | 0.00 | 80 | 1008.4 |
| 20260506115541 | 62 | 183 | 4.0 | 15.0 | 0.00 | 0.00 | 0.00 | 79 | 1008.3 |
| 20260506115040 | 62 | 225 | 4.0 | 13.0 | 0.00 | 0.00 | 0.00 | 78 | 1008.4 |
| 20260506114552 | 63 | 214 | 5.0 | 13.0 | 0.00 | 0.00 | 0.00 | 77 | 1008.3 |
| 20260506114040 | 63 | 240 | 4.0 | 14.0 | 0.00 | 0.00 | 0.00 | 76 | 1008.1 |
| 20260506113541 | 63 | 227 | 4.0 | 16.0 | 0.00 | 0.00 | 0.00 | 76 | 1007.9 |
| 20260506113048 | 63 | 215 | 7.0 | 16.0 | 0.00 | 0.00 | 0.00 | 75 | 1007.9 |
| 20260506112542 | 63 | 224 | 4.0 | 12.0 | 0.00 | 0.00 | 0.00 | 75 | 1007.8 |
| 20260506112041 | 63 | 223 | 3.0 | 20.0 | 0.00 | 0.00 | 0.00 | 76 | 1007.7 |
| 20260506111559 | 63 | 210 | 3.0 | 20.0 | 0.00 | 0.00 | 0.00 | 75 | 1007.6 |